{"data":{"norad_id":65145,"epoch":"2026-09-20T23:37:37.356960Z","epoch_age_seconds":123480,"freshness":"FRESH","line1":"1 65145U 25171P   26263.98446015  .00001937  00000+0  28299-3 0  9995","line2":"2 65145  51.9018   4.5052 0000735  75.7259 284.3785 14.79929728 61959","mean_motion":14.79929728,"eccentricity":7.35e-5,"inclination_deg":51.9018,"raan_deg":4.5052,"arg_perigee_deg":75.7259,"mean_anomaly_deg":284.3785,"bstar":0.00028299,"rev_number":6195,"period_min":97.301917297522,"perigee_km":629.0308933898,"apogee_km":630.06102278464,"semimajor_km":7007.6829580872,"source":"CELESTRAK","updated_at":"2026-09-22T09:00:30.155104Z"}}